Location: Arlos
(42.8917°N, 0.7028°E)
Time: 08:06:02
(UTC+00:00)

Daily predictions for brighter satellites

Satellite Brightness Start Highest point End
(mag) Time Altitude Azimuth Time Altitude Azimuth Time Altitude Azimuth
YAOGAN 1 4.3 17:18:43 10° E 17:20:50 14° ENE 17:22:58 10° NNE
BREEZE-M TANK 3.6 17:08:48 10° W 17:20:56 73° N 17:24:43 10° E
Atlas Centaur 2 4.3 17:14:21 10° SW 17:21:02 30° SSE 17:28:06 10° ESE
Meteor 2-21 Rocket 4.4 17:17:02 10° N 17:23:12 70° E 17:29:16 10° SSE
NOAA 11 4.3 17:20:12 10° SE 17:25:27 52° ENE 17:30:42 10° N
Cosmos 44 3.7 17:21:33 10° SW 17:25:59 61° NW 17:30:43 10° NNE
Radarsat Rocket 4.4 17:21:04 10° S 17:27:06 69° WSW 17:32:55 10° NNW
Okean O Rocket 1.6 17:22:58 10° SSE 17:27:19 89° WSW 17:31:42 10° NNW
Cosmos 2228 3.1 17:23:19 10° S 17:27:33 82° W 17:31:51 10° N
Cosmos 1340 3.3 17:24:10 10° N 17:27:38 33° ENE 17:31:05 10° SE
Cosmos 1726 Rocket 3.5 17:24:04 10° S 17:28:24 75° E 17:32:47 10° NNE
CZ-4 R/B 2.8 17:26:45 10° ESE 17:29:10 16° ENE 17:31:35 10° NNE
SL-4 R/B 3.4 17:30:52 10° NW 17:33:39 21° N 17:36:32 10° ENE
Aureole 3 3.0 17:31:15 10° SSE 17:34:14 42° E 17:37:05 10° NNE
CORIOLIS 4.2 17:29:10 10° SSE 17:34:31 89° ENE 17:39:55 10° NNW
Cosmos 1346 Rocket 4.0 17:32:14 10° NNE 17:35:22 22° ENE 17:38:30 10° ESE
Cosmos 1980 Rocket 3.6 17:32:38 10° SE 17:35:56 16° E 17:39:13 10° ENE
Cosmos 2058 4.1 17:33:01 10° NNE 17:36:13 22° ENE 17:39:24 10° SE
Cosmos 2297 Rocket 2.2 17:33:27 10° NNW 17:39:06 62° ENE 17:44:41 10° SE
Timation 2 Rocket 4.3 17:34:07 10° NNW 17:40:47 85° WSW 17:47:39 10° SSE
In-Cosmos 22 Rocket 4.3 17:35:51 10° N 17:41:06 51° ENE 17:46:26 10° SSE
CZ-2C R/B 4.1 17:38:00 10° ESE 17:42:49 28° ENE 17:47:32 10° N
Cosmos 1315 Rocket 3.9 17:41:37 10° SE 17:44:47 23° E 17:47:59 10° NE
Cosmos 1606 Rocket 4.3 17:40:36 10° SSW 17:44:53 56° W 17:49:15 10° N
Cosmos 1553 Rocket 4.1 17:42:27 10° SSE 17:48:38 56° E 17:54:44 10° NNE
Cosmos 220 Rocket 4.4 17:46:10 10° S 17:50:15 41° ESE 17:54:24 10° NE
BREEZE-M R/B 4.1 17:50:35 10° WNW 17:54:09 40° NNE 17:59:00 16° ENE
Meteor 2-10 Rocket 3.8 17:49:30 10° SSE 17:54:30 43° E 17:59:20 10° NNE
USA 305 3.6 17:51:33 10° NW 17:55:35 38° NNE 17:58:11 19° E
Cosmos 1455 2.9 17:53:19 10° SSE 17:56:37 30° E 17:59:59 10° NNE
FengYun 1-2 T 4.5 17:51:20 10° S 17:56:59 78° WSW 18:02:39 10° NNW
SKYMED 2 3.5 17:53:09 10° NNE 17:57:29 62° ESE 18:01:46 10° S
SeaSat 1 4.1 18:00:38 15° ENE 18:01:28 16° NE 18:04:19 10° N
USA 306 3.5 17:58:03 10° NW 18:02:07 41° NNE 18:04:25 22° E
H-2A R/B 3.0 17:58:42 10° ESE 18:03:17 29° ENE 18:07:55 10° N
Okean-O 2.9 18:00:21 10° SE 18:04:34 45° ENE 18:08:48 10° N
Cosmos 2278 4.4 18:04:09 10° SSE 18:09:08 32° ESE 18:12:45 17° NE
NOSS 3-3 (A) 3.8 18:04:08 10° SSW 18:09:49 68° ESE 18:16:10 10° NE
NOSS 3-3 (C) 3.8 18:04:15 10° SSW 18:09:56 67° ESE 18:16:14 10° NE
MOS 1 Rocket 4.1 18:05:43 10° NE 18:09:56 30° E 18:14:23 10° SSE
Aureole 3 Rocket 3.6 18:06:11 10° SSW 18:10:10 70° W 18:15:46 10° N
SL-08 R/B 4.4 18:04:13 10° N 18:10:24 80° E 18:16:30 10° S
Cosmos 2219 3.6 18:06:56 10° NNW 18:12:41 70° WSW 18:18:23 10° SSE
Cosmos 1745 Rocket 4.0 18:10:38 10° N 18:16:55 65° E 18:23:12 10° SSE
Cosmos 44 Rocket 3.5 18:12:57 10° S 18:17:27 46° ESE 18:19:58 25° ENE
Lacrosse 5 3.7 18:14:51 10° NNW 18:18:10 17° N 18:20:11 14° NE
ARGOS 3.9 18:17:21 24° E 18:19:09 30° ENE 18:23:47 10° N
Cosmos 1408 2.5 18:16:18 10° N 18:19:57 61° E 18:23:35 10° SSE
Cosmos 2082 3.7 18:14:17 10° NNW 18:19:58 60° ENE 18:25:36 10° SE
Cosmos 1656 4.2 18:16:43 10° SW 18:22:12 60° WNW 18:27:49 10° NNE
Cosmos 2058 Rocket 4.3 18:18:37 10° SSW 18:22:55 45° WNW 18:27:16 10° N
ATLAS 2AS CENTAUR R/B 3.7 18:17:08 10° NNW 18:23:40 30° NE 18:26:17 24° ENE
Cosmos 968 Rocket 3.5 18:20:06 10° NNW 18:25:20 80° WSW 18:30:28 10° SSE
Cosmos 1386 Rocket 4.4 18:19:17 10° N 18:25:42 72° E 18:31:59 10° SSE
Cosmos 1689 Rocket 2.9 18:23:18 10° N 18:26:07 49° WNW 18:28:54 10° SSW
Cosmos 2369 3.6 18:27:44 10° SSW 18:33:26 79° ESE 18:39:09 10° NNE
Cosmos 1076 Rocket 3.3 18:30:07 10° N 18:34:22 68° E 18:38:36 10° SSE
Cosmos 1939 Rocket 4.0 18:31:47 10° S 18:35:35 44° W 18:39:22 10° NNW
Cosmos 1892 3.6 18:32:47 10° NNW 18:36:34 51° W 18:40:20 10° S
CSL-04 Rocket 3.7 18:34:57 10° SSE 18:40:23 59° ENE 18:45:48 10° N
Cosmos 2227 Rocket 3.1 18:38:06 10° NW 18:43:33 50° WSW 18:48:59 10° S
COSMO-SKYMED 1 3.9 18:41:24 10° N 18:45:27 39° WNW 18:49:29 10° SW
Cosmos 2263 Rocket 3.2 18:40:47 10° N 18:45:08 29° NE 18:45:08 29° NE
USA 307 2.7 18:41:43 10° NW 18:46:00 77° NE 18:46:28 67° E
Cosmos 1709 Rocket 4.0 18:40:05 10° N 18:46:25 62° E 18:52:43 10° SSE
CZ-4C R/B 4.0 18:42:51 10° NNW 18:48:31 26° NE 18:49:38 25° NE
OAO 2 Rocket 4.3 18:44:35 10° WSW 18:49:01 33° S 18:50:07 30° SSE
USA 308 2.7 18:46:41 10° NW 18:50:59 83° NE 18:51:15 77° E
Cosmos 1825 2.1 18:48:20 10° N 18:52:08 83° W 18:52:23 76° SSW
Helios 1A Rocket 4.0 18:49:15 10° S 18:53:11 44° W 18:57:07 10° NNW
Cosmos 1697 Rocket 3.1 18:50:07 10° SW 18:55:39 60° WNW 19:01:14 10° NNE
YAOGAN 1 2.9 18:52:09 10° S 18:56:25 63° WSW 19:00:43 10° NNW
Cosmos 883 Rocket 4.3 18:52:21 10° S 18:58:30 85° E 19:04:40 10° N
GPS 2-04 Rocket1 4.3 18:55:43 10° SW 18:58:37 26° S 18:58:37 26° S
Cosmos 1812 Rocket 4.1 18:59:10 10° SSW 19:03:30 58° W 19:07:50 10° N
CZ-4 R/B 2.6 19:00:15 10° SSW 19:03:54 39° W 19:07:32 10° NNW
Cosmos 1503 Rocket 4.5 19:00:20 10° NNW 19:05:30 60° WSW 19:10:15 12° S
Milstar 3 4.2 19:02:20 10° WSW 19:07:36 24° S 19:09:47 20° SSE
Cosmos 2315 Rocket 3.8 19:03:08 10° S 19:09:19 84° E 19:15:33 10° N
Atlas Centaur 2 4.0 19:02:36 10° WSW 19:09:56 34° S 19:12:40 28° SSE
SL-4 R/B 3.5 19:10:13 10° NW 19:12:07 28° NW 19:12:07 28° NW
Cosmos 1980 Rocket 2.3 19:13:38 10° SSW 19:19:15 73° WNW 19:21:13 41° N
CZ-2C R/B 4.3 19:16:55 10° S 19:22:26 45° W 19:27:50 10° NNW
SeaSat 1 3.7 19:40:26 35° NNW 19:40:26 35° NNW 19:43:17 10° NNW
H-2A R/B 3.3 19:37:26 10° SSW 19:42:30 41° W 19:47:38 10° NNW
NOSS 3-4 (A) 3.8 19:46:16 10° NW 19:53:07 83° WNW 19:53:07 83° WNW
NOSS 3-4 (C) 3.8 19:46:22 10° NW 19:53:11 83° WNW 19:53:11 83° WNW
USA 215 4.0 19:57:31 40° N 19:57:31 40° N 20:02:25 10° NW
ARGOS 4.3 19:58:53 39° WSW 19:59:15 39° W 20:04:20 10° NNW
Lacrosse 5 4.1 19:57:48 10° NW 19:59:23 19° NNW 19:59:23 19° NNW
ATLAS 2AS CENTAUR R/B 3.3 20:08:01 10° NW 20:13:44 55° NW 20:13:44 55° NW
Cosmos 2263 Rocket 4.1 20:24:25 10° NW 20:26:50 25° NW 20:26:50 25° NW
CZ-4C R/B 3.9 20:30:48 10° NW 20:34:50 38° NNW 20:34:50 38° NNW
